TimeCET,TemperatureF,Dew PointF,Humidity,Sea Level PressureIn,VisibilityMPH,Wind Direction,Wind SpeedMPH,Gust SpeedMPH,PrecipitationIn,Events,Conditions,WindDirDegrees,DateUTC
12:00 AM,36,36,100,30.31,,NE,2.3,,,,,40,2013-12-05 23:00:00
12:00 AM,37.4,37.4,100,30.30,3.1,Variable,2.3,-,N/A,,Partly Cloudy,0,2013-12-05 23:00:00
12:30 AM,37.4,37.4,100,30.30,3.1,Calm,Calm,-,N/A,,Partly Cloudy,0,2013-12-05 23:30:00
1:00 AM,36,36,98,30.30,2,Calm,Calm,,,,Mist,,2013-12-06 00:00:00
1:00 AM,35.6,35.6,100,30.30,2.5,Calm,Calm,-,N/A,,Partly Cloudy,0,2013-12-06 00:00:00
1:30 AM,33.8,33.8,100,30.27,3.1,Calm,Calm,-,N/A,,Partly Cloudy,0,2013-12-06 00:30:00
2:00 AM,34,34,99,30.28,,Calm,Calm,,,,,,2013-12-06 01:00:00
2:00 AM,33.8,33.8,100,30.27,3.7,Calm,Calm,-,N/A,,Unknown,0,2013-12-06 01:00:00
2:30 AM,32.0,32.0,100,30.27,3.7,Variable,1.2,-,N/A,,Unknown,0,2013-12-06 01:30:00
3:00 AM,32,32,100,30.28,,NNW,2.3,,,,,330,2013-12-06 02:00:00
3:00 AM,32.0,32.0,100,30.27,3.1,NW,1.2,-,N/A,,Mist,320,2013-12-06 02:00:00
3:30 AM,32.0,32.0,100,30.27,3.1,Calm,Calm,-,N/A,,Mist,0,2013-12-06 02:30:00
4:00 AM,30.2,30.2,100,30.27,3.1,North,2.3,-,N/A,,Mist,10,2013-12-06 03:00:00
4:30 AM,35.6,35.6,100,30.24,2.5,NNW,3.5,-,N/A,,Mist,340,2013-12-06 03:30:00
5:00 AM,33,33,98,30.27,,Calm,Calm,,,,,,2013-12-06 04:00:00
5:00 AM,33.8,32.0,93,30.24,3.7,Calm,Calm,-,N/A,,Unknown,0,2013-12-06 04:00:00
5:30 AM,32.0,30.2,93,30.27,3.7,Variable,1.2,-,N/A,,Unknown,0,2013-12-06 04:30:00
6:00 AM,31,31,97,30.27,,East,1.2,,,,,80,2013-12-06 05:00:00
6:00 AM,30.2,30.2,100,30.24,5.0,NNE,1.2,-,N/A,,Unknown,30,2013-12-06 05:00:00
6:30 AM,30.2,30.2,100,30.24,4.3,Variable,1.2,-,N/A,,Unknown,0,2013-12-06 05:30:00
7:00 AM,30,30,99,30.28,4,Calm,Calm,,,,Mist,,2013-12-06 06:00:00
7:00 AM,30.2,30.2,100,30.27,4.3,Variable,1.2,-,N/A,,Unknown,0,2013-12-06 06:00:00
7:30 AM,30.2,30.2,100,30.27,5.6,West,1.2,-,N/A,,Unknown,270,2013-12-06 06:30:00
8:00 AM,29,29,100,30.28,,SSW,1.2,,,,,210,2013-12-06 07:00:00
8:00 AM,30.2,30.2,100,30.27,-9999.0,Calm,Calm,-,N/A,,Clear,0,2013-12-06 07:00:00
8:30 AM,30.2,30.2,100,30.27,-9999.0,West,1.2,-,N/A,,Clear,270,2013-12-06 07:30:00
9:00 AM,31,31,100,30.30,,NNE,3.5,,,,,30,2013-12-06 08:00:00
9:00 AM,30.2,30.2,100,30.27,-9999.0,NE,3.5,-,N/A,,Clear,40,2013-12-06 08:00:00
9:30 AM,33.8,33.8,100,30.30,-9999.0,Calm,Calm,-,N/A,,Clear,0,2013-12-06 08:30:00
10:00 AM,37.4,35.6,93,30.30,-9999.0,Variable,2.3,-,N/A,,Clear,0,2013-12-06 09:00:00
10:30 AM,42.8,39.2,87,30.30,-9999.0,Calm,Calm,-,N/A,,Clear,0,2013-12-06 09:30:00
11:00 AM,47,39,66,30.30,,Calm,Calm,,,,,,2013-12-06 10:00:00
11:00 AM,46.4,39.2,76,30.30,-9999.0,Calm,Calm,-,N/A,,Clear,0,2013-12-06 10:00:00
11:30 AM,48.2,41.0,76,30.30,-9999.0,Variable,1.2,-,N/A,,Clear,0,2013-12-06 10:30:00
12:00 PM,52,41,56,30.29,,Calm,Calm,,,,,,2013-12-06 11:00:00
12:00 PM,51.8,41.0,67,30.30,-9999.0,Calm,Calm,-,N/A,,Clear,0,2013-12-06 11:00:00
12:30 PM,51.8,35.6,54,30.27,-9999.0,Variable,2.3,-,N/A,,Clear,0,2013-12-06 11:30:00
1:00 PM,54,36,39,30.26,12,East,5.8,,,,,80,2013-12-06 12:00:00
1:00 PM,51.8,33.8,50,30.27,-9999.0,ENE,5.8,-,N/A,,Clear,70,2013-12-06 12:00:00
1:30 PM,53.6,35.6,51,30.24,-9999.0,ENE,3.5,-,N/A,,Clear,60,2013-12-06 12:30:00
2:00 PM,56,37,36,30.25,,NE,4.6,,,,,40,2013-12-06 13:00:00
2:00 PM,55.4,37.4,51,30.24,-9999.0,NE,3.5,-,N/A,,Clear,40,2013-12-06 13:00:00
2:30 PM,55.4,37.4,51,30.24,-9999.0,Variable,2.3,-,N/A,,Clear,0,2013-12-06 13:30:00
3:00 PM,58,34,28,30.23,,East,2.3,,,,,80,2013-12-06 14:00:00
3:00 PM,57.2,33.8,41,30.24,-9999.0,Variable,1.2,-,N/A,,Clear,0,2013-12-06 14:00:00
3:30 PM,57.2,37.4,48,30.21,-9999.0,Variable,1.2,-,N/A,,Clear,0,2013-12-06 14:30:00
4:00 PM,55.4,35.6,47,30.21,-9999.0,Calm,Calm,-,N/A,,Clear,0,2013-12-06 15:00:00
4:30 PM,55.4,35.6,47,30.21,-9999.0,WSW,1.2,-,N/A,,Clear,250,2013-12-06 15:30:00
5:00 PM,54,38,42,30.22,,WSW,2.3,,,,,250,2013-12-06 16:00:00
5:00 PM,51.8,37.4,58,30.21,-9999.0,WSW,2.3,-,N/A,,Clear,240,2013-12-06 16:00:00
5:30 PM,50.0,37.4,62,30.24,-9999.0,West,1.2,-,N/A,,Clear,260,2013-12-06 16:30:00
6:00 PM,48,36,54,30.24,,WNW,2.3,,,,,290,2013-12-06 17:00:00
6:00 PM,48.2,37.4,66,30.24,-9999.0,West,2.3,-,N/A,,Clear,280,2013-12-06 17:00:00
6:30 PM,44.6,37.4,76,30.24,-9999.0,SSW,2.3,-,N/A,,Clear,200,2013-12-06 17:30:00
7:00 PM,43,36,69,30.24,9,NW,2.3,,,,,320,2013-12-06 18:00:00
7:00 PM,42.8,37.4,81,30.24,-9999.0,Calm,Calm,-,N/A,,Clear,0,2013-12-06 18:00:00
7:30 PM,39.2,35.6,87,30.24,-9999.0,NNE,3.5,-,N/A,,Clear,30,2013-12-06 18:30:00
8:00 PM,41,36,78,30.25,,Calm,Calm,,,,,,2013-12-06 19:00:00
8:00 PM,41.0,37.4,87,30.24,-9999.0,Calm,Calm,-,N/A,,Clear,0,2013-12-06 19:00:00
8:30 PM,39.2,33.8,81,30.24,-9999.0,Variable,2.3,-,N/A,,Clear,0,2013-12-06 19:30:00
9:00 PM,37,34,84,30.27,,NNE,2.3,,,,,30,2013-12-06 20:00:00
9:00 PM,37.4,35.6,93,30.24,-9999.0,NNE,2.3,-,N/A,,Clear,30,2013-12-06 20:00:00
9:30 PM,37.4,35.6,93,30.24,-9999.0,Variable,2.3,-,N/A,,Clear,0,2013-12-06 20:30:00
10:00 PM,35.6,33.8,93,30.24,-9999.0,Calm,Calm,-,N/A,,Clear,0,2013-12-06 21:00:00
10:30 PM,35.6,33.8,93,30.24,5.6,Calm,Calm,-,N/A,,Unknown,0,2013-12-06 21:30:00
11:00 PM,35,34,93,30.26,,Calm,Calm,,,,,,2013-12-06 22:00:00
11:00 PM,35.6,33.8,93,30.24,5.0,Variable,1.2,-,N/A,,Unknown,0,2013-12-06 22:00:00
11:30 PM,35.6,33.8,93,30.24,5.0,WSW,3.5,-,N/A,,Unknown,240,2013-12-06 22:30:00